[[{"header":{"parameterUnit":"m.s-1","parameterCategory":1,"la1":30.2991,"la2":30.254,"lo1":-89.0895,"lo2":-89.0444,"dy":0.0017,"dx":0.0017,"nx":28,"ny":28,"refTime":"2025-07-26T03:00:00:Z","depth":0,"parameterNumber":2,"parameterNumberName":"U-component_of_WINDS"},"data":[0,0,0,0,0,0,0,0,0,0,0,0,0,0,0,0,0,0,0,0,0,0,0,0,0,0,0,0,0,0,0,0,0,0,0,0,0,0,0,0,0,0,0,0,0,0,0,0,0,0,0,0,0,0,0,0,0,0,-0.8617,-0.8618,0,-0.8662,-0.8662,-0.8663,-0.8667,-0.8667,-0.8666,-0.8666,-0.8711,-0.8713,-0.8715,0,0,0,0,0,0,0,0,0,0,0,0,0,-0.8538,-0.854,-0.8617,-0.8618,-0.8619,-0.8661,-0.8662,-0.8663,-0.8667,-0.8667,-0.8666,-0.8666,-0.8711,-0.8713,-0.8715,0,0,0,0,0,0,0,0,0,0,0,0,0,-0.8577,-0.854,-0.8617,-0.8626,-0.8627,-0.8661,-0.8662,-0.8663,-0.8668,-0.8667,-0.8666,-0.8666,-0.871,-0.8713,-0.8715,-0.8743,0,0,-0.8723,-0.8724,0,0,0,0,0,0,0,0,-0.8574,-0.8579,-0.8624,-0.8626,-0.8627,-0.8658,-0.8651,-0.869,-0.8668,-0.8652,-0.8666,-0.8665,-0.8694,-0.8698,-0.8708,-0.8746,-0.8748,-0.8723,-0.8724,-0.8725,-0.8726,0,0,0,0,0,0,0,-0.8572,-0.8578,-0.8635,-0.8625,-0.8627,-0.8628,-0.8633,-0.8658,-0.8677,-0.8654,-0.8654,-0.8659,-0.8695,-0.8705,-0.8709,-0.8748,-0.8723,-0.8725,-0.8726,-0.8727,-0.8812,-0.8813,0,0,0,0,0,0,-0.8567,-0.8575,-0.8633,-0.8636,-0.8598,-0.863,-0.8635,-0.8649,-0.8676,-0.868,-0.866,-0.8659,-0.8702,-0.8706,-0.871,-0.8746,-0.8725,-0.8728,-0.8729,-0.8812,-0.8813,-0.8813,0,0,0,0,0,0,-0.8566,-0.8572,-0.8632,-0.8606,-0.8614,-0.8632,-0.8647,-0.865,-0.8661,-0.8681,-0.8684,-0.8667,-0.8701,-0.8707,-0.8735,-0.8748,-0.8729,-0.8731,-0.8811,-0.8812,-0.8813,-0.8817,0,0,0,0,0,0,-0.8563,-0.8572,-0.8583,-0.8606,-0.8615,-0.8656,-0.8648,-0.8651,-0.8665,-0.8665,-0.8689,-0.8692,-0.8701,-0.8732,-0.8738,-0.8751,-0.8733,-0.881,-0.8811,-0.8813,-0.8816,-0.8818,-0.882,0,0,0,0,0,-0.856,-0.8582,-0.8583,-0.859,-0.8629,-0.8656,-0.8661,-0.8672,-0.8666,-0.8677,-0.869,-0.8691,-0.8745,-0.8735,-0.8742,-0.8755,-0.8809,-0.8811,-0.8813,-0.8815,-0.8818,-0.882,0,0,0,0,0,0,-0.8559,-0.8585,-0.8587,-0.8616,-0.8634,-0.8657,-0.8672,-0.8674,-0.8694,-0.8693,-0.8705,-0.871,-0.8738,-0.875,-0.8737,-0.8785,-0.8777,-0.878,-0.8776,-0.8779,-0.8781,-0.8778,-0.8735,0,0,0,0,0,-0.8563,-0.8583,-0.8604,-0.8628,-0.8637,-0.8653,-0.8665,-0.8671,-0.869,-0.8698,-0.8713,-0.8732,-0.8753,-0.8767,-0.8787,-0.8818,-0.8823,-0.8831,-0.8833,-0.8835,-0.8837,-0.8855,-0.8859,-0.8819,-0.8819,-0.8819,0,0,-0.8569,-0.8586,-0.8598,-0.8628,-0.8643,-0.8664,-0.8659,-0.8681,-0.8697,-0.8701,-0.8729,-0.8741,-0.8762,-0.8792,-0.8806,-0.8802,-0.8849,-0.8837,-0.8838,-0.884,-0.8857,-0.8861,-0.8864,-0.8821,-0.882,-0.882,0,0,-0.8593,-0.8607,-0.8629,-0.8644,-0.8666,-0.8676,-0.8681,-0.8704,-0.8712,-0.874,-0.8744,-0.8763,-0.8799,-0.8815,-0.8827,-0.8857,-0.8859,-0.8863,-0.8875,-0.8892,-0.8895,-0.8898,-0.8909,-0.8912,-0.8866,-0.8866,-0.8866,0,-0.8599,-0.863,-0.864,-0.8662,-0.8676,-0.8681,-0.8703,-0.8717,-0.8745,-0.8754,-0.875,-0.8796,-0.8811,-0.8844,-0.8852,-0.8861,-0.8868,-0.886,-0.8893,-0.8896,-0.8899,-0.891,-0.8914,-0.8866,-0.8866,-0.8866,-0.8866,0,-0.8636,-0.8658,-0.8673,-0.87,-0.8715,-0.8737,-0.8751,-0.8766,-0.8771,-0.8781,-0.881,-0.8828,-0.8853,-0.8861,-0.8866,-0.8896,-0.8893,-0.8891,-0.8883,-0.8903,-0.8914,-0.8918,-0.8867,-0.8867,-0.8866,-0.8866,0,0,-0.866,-0.8692,-0.8698,-0.871,-0.8735,-0.8752,-0.8775,-0.8799,-0.8811,-0.883,-0.885,-0.8881,-0.8879,-0.8893,-0.89,-0.8915,-0.8938,-0.8911,-0.8912,-0.8916,-0.8973,-0.8975,-0.8979,-0.894,-0.894,-0.8941,-0.8971,0,-0.8687,-0.8727,-0.8737,-0.8772,-0.8793,-0.8798,-0.8818,-0.8835,-0.8846,-0.8865,-0.8877,-0.8899,-0.8895,-0.8904,-0.8919,-0.8932,-0.895,-0.893,-0.8958,-0.8959,-0.8953,-0.8984,-0.8986,-0.9014,-0.8975,-0.8976,-0.8976,0,-0.8723,-0.8743,-0.878,-0.8803,-0.8812,-0.8829,-0.8853,-0.8871,-0.8891,-0.8898,-0.8914,-0.8919,-0.8944,-0.8934,-0.8968,-0.8955,-0.8967,-0.8975,-0.8977,-0.898,-0.8969,-0.8989,-0.9023,-0.9027,-0.8983,-0.8982,-0.8982,0,-0.8738,-0.8774,-0.8801,-0.8811,-0.8838,-0.885,-0.8862,-0.8882,-0.8896,-0.8916,-0.8925,-0.8948,-0.8961,-0.8978,-0.899,-0.8982,-0.9023,-0.9015,-0.903,-0.903,-0.9039,-0.9038,-0.9075,-0.9046,-0.9046,-0.9046,-0.9046,0,-0.8767,-0.8789,-0.8808,-0.8824,-0.885,-0.8861,-0.8886,-0.8898,-0.8915,-0.8935,-0.894,-0.8958,-0.8972,-0.8992,-0.9002,-0.9029,-0.9034,-0.9041,-0.9043,-0.9041,-0.904,-0.9049,-0.9048,-0.9047,-0.9047,-0.9046,-0.9046,0,-0.8788,-0.8801,-0.883,-0.8853,-0.886,-0.8878,-0.8898,-0.8914,-0.8925,-0.8949,-0.8956,-0.8973,-0.8997,-0.901,-0.904,-0.9047,-0.9077,-0.9078,-0.907,-0.9071,-0.9086,-0.9085,-0.9131,-0.9138,-0.9103,-0.9103,-0.9104,0,-0.8806,-0.8823,-0.8848,-0.8861,-0.8873,-0.8895,-0.8909,-0.8921,-0.8936,-0.896,-0.8974,-0.8998,-0.9018,-0.9056,-0.9072,-0.9095,-0.9097,-0.9111,-0.91,-0.9098,-0.9098,-0.9097,-0.9099,-0.9113,-0.9114,-0.9114,-0.9114,0,-0.8836,-0.8842,-0.8862,-0.8885,-0.8902,-0.8921,-0.8939,-0.895,-0.8965,-0.8981,-0.9006,-0.9021,-0.9052,-0.9076,-0.9101,-0.9113,-0.9117,-0.9118,-0.9122,-0.912,-0.9115,-0.9119,-0.9076,-0.9117,-0.9116,-0.9116,-0.9116,-0.9116,-0.8857,-0.8873,-0.8893,-0.8916,-0.8931,-0.8948,-0.8965,-0.8978,-0.8998,-0.9024,-0.903,-0.9056,-0.9076,-0.9109,-0.9123,-0.9143,-0.9141,-0.9148,-0.9149,-0.9151,-0.9152,-0.9112,-0.9148,-0.9148,-0.9148,-0.9148,-0.9148,0,-0.8889,-0.8902,-0.8922,-0.8948,-0.8966,-0.8967,-0.8988,-0.9003,-0.9026,-0.9044,-0.9064,-0.9092,-0.9116,-0.9133,-0.9157,-0.9171,-0.9173,-0.9177,-0.9176,-0.9179,-0.9153,-0.9146,-0.9175,-0.9175,-0.9174,-0.9174,-0.9174,-0.9174,-0.8907,-0.8935,-0.8943,-0.8978,-0.8991,-0.9016,-0.9028,-0.9044,-0.9059,-0.909,-0.911,-0.9121,-0.9139,-0.9165,-0.9186,-0.9191,-0.92,-0.9204,-0.9208,-0.9184,-0.9181,-0.9178,-0.9172,-0.9205,-0.9205,-0.9233,-0.9233,-0.9234]},{"header":{"parameterUnit":"m.s-1","parameterCategory":1,"la1":30.2991,"la2":30.254,"lo1":-89.0895,"lo2":-89.0444,"dy":0.0017,"dx":0.0017,"nx":28,"ny":28,"refTime":"2025-07-26T03:00:00:Z","depth":0,"parameterNumber":3,"parameterNumberName":"V-component_of_WINDS"},"data":[0,0,0,0,0,0,0,0,0,0,0,0,0,0,0,0,0,0,0,0,0,0,0,0,0,0,0,0,0,0,0,0,0,0,0,0,0,0,0,0,0,0,0,0,0,0,0,0,0,0,0,0,0,0,0,0,0,0,3.5455,3.5456,0,3.5496,3.5496,3.5497,3.5451,3.5449,3.5448,3.5446,3.5485,3.5488,3.549,0,0,0,0,0,0,0,0,0,0,0,0,0,3.5336,3.5338,3.5455,3.5456,3.5456,3.5496,3.5496,3.5497,3.5451,3.5449,3.5447,3.5445,3.5484,3.5487,3.549,0,0,0,0,0,0,0,0,0,0,0,0,0,3.5383,3.5339,3.5455,3.5438,3.5437,3.5496,3.5496,3.5497,3.5452,3.5449,3.5447,3.5444,3.5483,3.5487,3.5491,3.5567,0,0,3.5503,3.5505,0,0,0,0,0,0,0,0,3.538,3.5387,3.544,3.544,3.5439,3.5466,3.5468,3.552,3.5453,3.5446,3.5446,3.5443,3.5481,3.5485,3.5498,3.5569,3.557,3.5503,3.5506,3.5507,3.5509,0,0,0,0,0,0,0,3.5377,3.5385,3.5471,3.5441,3.544,3.5428,3.5432,3.5478,3.5477,3.5447,3.5443,3.5449,3.548,3.5494,3.5498,3.5571,3.5503,3.5507,3.5509,3.5511,3.5705,3.5707,0,0,0,0,0,0,3.5376,3.5383,3.547,3.5472,3.5403,3.5432,3.5437,3.546,3.5477,3.5477,3.5451,3.5447,3.5489,3.5494,3.55,3.5588,3.5507,3.5511,3.5513,3.5702,3.5705,3.5708,0,0,0,0,0,0,3.5374,3.5384,3.5468,3.5427,3.5437,3.5437,3.5463,3.5462,3.5476,3.548,3.5479,3.5466,3.5487,3.5494,3.555,3.5589,3.5513,3.5516,3.5699,3.5703,3.5707,3.5767,0,0,0,0,0,0,3.5371,3.5384,3.5413,3.5428,3.5439,3.5519,3.5466,3.5464,3.5483,3.5478,3.5494,3.5494,3.5485,3.5545,3.5554,3.5593,3.552,3.5695,3.5701,3.5705,3.5761,3.5773,3.5782,0,0,0,0,0,3.5367,3.5428,3.5415,3.5426,3.5476,3.5522,3.5528,3.5517,3.5487,3.5516,3.5518,3.5494,3.5584,3.5551,3.5561,3.5602,3.5693,3.5699,3.5705,3.5757,3.577,3.5782,0,0,0,0,0,0,3.5417,3.543,3.5415,3.5484,3.5502,3.5514,3.555,3.5532,3.5558,3.5552,3.5537,3.5541,3.56,3.5607,3.557,3.5675,3.5633,3.5642,3.5669,3.5682,3.5692,3.5688,3.5523,0,0,0,0,0,3.5437,3.5474,3.5482,3.5542,3.5552,3.555,3.5569,3.5559,3.5577,3.5584,3.5591,3.5608,3.564,3.5662,3.5692,3.5763,3.5765,3.5796,3.5806,3.5815,3.5822,3.5859,3.5872,3.5729,3.5729,3.5729,0,0,3.5477,3.5488,3.5512,3.5552,3.5565,3.5603,3.5556,3.5598,3.5625,3.559,3.5644,3.5649,3.5668,3.5732,3.576,3.5739,3.5862,3.5823,3.583,3.5832,3.5866,3.588,3.5892,3.5733,3.5732,3.5732,0,0,3.5568,3.5581,3.5632,3.5646,3.5666,3.5665,3.5677,3.5692,3.5694,3.5748,3.5722,3.5754,3.581,3.5824,3.5838,3.5935,3.5913,3.5946,3.5999,3.6035,3.6046,3.6056,3.6089,3.6102,3.5953,3.5953,3.5953,0,3.5615,3.5671,3.566,3.5703,3.5721,3.5693,3.5743,3.5757,3.5786,3.5798,3.5775,3.5844,3.5854,3.592,3.5944,3.5957,3.597,3.5943,3.6046,3.6056,3.6065,3.6096,3.6109,3.5957,3.5956,3.5956,3.5956,0,3.5726,3.5766,3.5804,3.5833,3.5856,3.5902,3.5897,3.5921,3.591,3.591,3.5965,3.5977,3.6008,3.6023,3.6012,3.6087,3.6073,3.6048,3.6005,3.6082,3.6111,3.6123,3.5962,3.5961,3.596,3.5959,0,0,3.585,3.5873,3.5887,3.5899,3.592,3.5949,3.5995,3.6026,3.6046,3.6067,3.6104,3.6152,3.6129,3.6145,3.6135,3.6167,3.6242,3.6138,3.6138,3.6155,3.6324,3.6341,3.6355,3.6228,3.623,3.6232,3.6322,0,3.594,3.6019,3.601,3.6085,3.612,3.6094,3.6133,3.6149,3.6151,3.6181,3.6182,3.6216,3.6184,3.6193,3.6224,3.6226,3.6275,3.622,3.626,3.6262,3.6254,3.6371,3.639,3.6473,3.6333,3.6335,3.6336,0,3.6056,3.6082,3.616,3.6174,3.6189,3.6224,3.6252,3.6281,3.6299,3.6298,3.6317,3.6302,3.6346,3.6303,3.6363,3.6326,3.6342,3.6346,3.6349,3.635,3.6302,3.6374,3.65,3.6512,3.6355,3.6353,3.6352,0,3.6136,3.619,3.6243,3.6255,3.6274,3.6299,3.6308,3.6324,3.6343,3.6367,3.6379,3.6408,3.6424,3.6446,3.6438,3.6409,3.65,3.6457,3.6498,3.6499,3.6517,3.6516,3.6646,3.6531,3.6531,3.6531,3.653,0,3.6236,3.6285,3.6279,3.6312,3.6365,3.6355,3.6408,3.6413,3.6427,3.646,3.6439,3.647,3.646,3.649,3.6484,3.6534,3.6541,3.6541,3.6538,3.6542,3.6541,3.655,3.6544,3.6534,3.6533,3.6533,3.6532,0,3.6333,3.6332,3.6388,3.6402,3.6407,3.6445,3.6456,3.6486,3.6487,3.6529,3.6538,3.6538,3.6573,3.6568,3.6606,3.6603,3.6664,3.6655,3.6658,3.6655,3.6697,3.6692,3.6835,3.6853,3.6729,3.673,3.6731,0,3.6397,3.6433,3.6451,3.6472,3.6483,3.6517,3.6536,3.6527,3.6548,3.6572,3.6599,3.6632,3.6657,3.6713,3.6716,3.6745,3.6736,3.6784,3.674,3.6742,3.6734,3.6732,3.6735,3.6792,3.6794,3.6795,3.6796,0,3.6509,3.6506,3.6536,3.6565,3.6589,3.6612,3.6632,3.665,3.6643,3.6668,3.6703,3.6723,3.6762,3.6794,3.6822,3.683,3.6811,3.681,3.6821,3.6823,3.6823,3.6822,3.668,3.6806,3.6805,3.6804,3.6804,3.6803,3.659,3.6621,3.6638,3.6671,3.6686,3.6705,3.6734,3.6739,3.6768,3.6799,3.6793,3.6832,3.6848,3.6883,3.6895,3.6925,3.6907,3.6923,3.6927,3.693,3.6934,3.682,3.693,3.6929,3.6929,3.6929,3.6929,0,3.6699,3.6709,3.674,3.6769,3.6795,3.6777,3.6799,3.6821,3.6856,3.6874,3.6899,3.6939,3.697,3.6977,3.7006,3.7029,3.7021,3.7037,3.7034,3.7036,3.695,3.6936,3.7042,3.7042,3.7042,3.7042,3.7042,3.7042,3.6759,3.681,3.681,3.6867,3.6877,3.6915,3.6929,3.6947,3.696,3.7006,3.7032,3.7036,3.7049,3.7079,3.7107,3.7107,3.7118,3.7137,3.7135,3.7053,3.7042,3.7031,3.7018,3.714,3.714,3.7218,3.7219,3.7219]}]]